ALOS-2

Last updated on Mon Sep 21 2026 00:02:09 GMT+0000 (Coordinated Universal Time)

1 39766U 14029A 26263.56912168 .00001065 00000+0 14947-3 0 9993 2 39766 97.9222 359.3669 0001533 93.6800 266.4587 14.79477966665682
UTC large
Height (km)
Speed (km/s)
/
Latitude / Longitude
Inclination (degrees)
Orbital Period (minutes)
Azimuth
Elevation
Range (km)
Doppler Factor

Next 0 passes for location: London (51.5072 / 0.1276)

No passes found over London.
ALOS-2